全部
Palumpa Airport (Palumpa, Northern Territory) YPUA 天气
There is no TAF data available at YPUA. Showing TAF data for YPKT (23 mi W).
PKT终端机场天气预报(YPUA无数据)
| Date | Time (ACST) | Flight Rules | Wind Dir. | Speed | Type | Height AGL (ft) | Visibility | Remarks | ||||||
|---|---|---|---|---|---|---|---|---|---|---|---|---|---|---|
There is no METAR data available at YPUA. Showing METAR data for YPKT (23 mi W).
PKT近期METAR历史数据(YPUA无数据)
| Date | Time (ACST) | Flight Rules | Wind Dir. | Speed | Type | Height AGL (ft) | Visibility | Temp (°C) | Temp (°F) | Dew Point (°C) | Dew Point (°F) | Rel. Humid. | Pressure | Density Altitude | Remarks |
|---|---|---|---|---|---|---|---|---|---|---|---|---|---|---|---|
| 05-五月 | 01:30 | n/a | Calm | Missing | 25° | 77° | 24° | 75° | 94% | 1011 mb | 1,356 ft | ||||
| 05-五月 | 00:30 | n/a | Calm | Missing | 25° | 77° | 24° | 75° | 94% | 1011 mb | 1,356 ft | ||||
| 04-五月 | 23:30 | n/a | Calm | Missing | 25° | 77° | 24° | 75° | 94% | 1012 mb | 1,327 ft | ||||
| 04-五月 | 22:30 | n/a | Calm | Missing | 25° | 77° | 24° | 75° | 94% | 1012 mb | 1,327 ft | ||||
| 04-五月 | 21:30 | n/a | Calm | Missing | 27° | 80° | 25° | 77° | 89% | 1012 mb | 1,567 ft | ||||
| 04-五月 | 20:30 | n/a | Calm | Missing | 28° | 82° | 24° | 75° | 79% | 1011 mb | 1,716 ft | ||||
| 04-五月 | 19:30 | n/a | 220° | 1 kt | Missing | 28° | 82° | 24° | 75° | 79% | 1011 mb | 1,716 ft | |||
| 04-五月 | 18:30 | n/a | 260° | 4 kt | Missing | 30° | 86° | 24° | 75° | 70% | 1010 mb | 1,986 ft | |||
| 04-五月 | 17:30 | n/a | 270° | 5 kt | Missing | 32° | 89° | 24° | 75° | 63% | 1009 mb | 2,255 ft | |||
| 04-五月 | 16:30 | n/a | 290° | 6 kt | Missing | 33° | 91° | 23° | 73° | 56% | 1009 mb | 2,375 ft | |||
| 04-五月 | 15:30 | n/a | 160° | 7 kt | Missing | 35° | 95° | 22° | 71° | 47% | 1009 mb | 2,615 ft | |||
| 04-五月 | 14:30 | n/a | 160° | 6 kt | Missing | 35° | 95° | 22° | 71° | 47% | 1009 mb | 2,615 ft | |||
| 04-五月 | 13:30 | n/a | 170° | 6 kt | Missing | 34° | 93° | 22° | 71° | 50% | 1010 mb | 2,466 ft | |||
| 04-五月 | 12:30 | n/a | 120° | 6 kt | Missing | 33° | 91° | 23° | 73° | 56% | 1011 mb | 2,316 ft | |||
| 04-五月 | 11:30 | n/a | 130° | 6 kt | Missing | 32° | 89° | 23° | 73° | 59% | 1012 mb | 2,167 ft | |||
| 04-五月 | 10:30 | n/a | 140° | 7 kt | Missing | 30° | 86° | 25° | 77° | 75% | 1013 mb | 1,897 ft | |||
| 04-五月 | 09:30 | n/a | 160° | 7 kt | Missing | 29° | 84° | 26° | 78° | 84% | 1012 mb | 1,807 ft | |||
| 04-五月 | 08:30 | n/a | Calm | Missing | 27° | 80° | 25° | 77° | 89% | 1012 mb | 1,567 ft | ||||
| 04-五月 | 07:30 | n/a | 190° | 2 kt | Missing | 25° | 77° | 24° | 75° | 94% | 1011 mb | 1,356 ft | |||
| 04-五月 | 06:30 | n/a | 190° | 1 kt | Missing | 24° | 75° | 24° | 75° | 100% | 1011 mb | 1,236 ft | |||
| 04-五月 | 05:30 | n/a | 190° | 1 kt | Missing | 24° | 75° | 23° | 73° | 94% | 1010 mb | 1,266 ft | |||
| 04-五月 | 04:30 | n/a | Calm | Missing | 25° | 77° | 24° | 75° | 94% | 1010 mb | 1,386 ft | ||||
| 04-五月 | 03:30 | n/a | Calm | Missing | 23° | 73° | 23° | 73° | 100% | 1010 mb | 1,146 ft | ||||
| 04-五月 | 02:30 | n/a | Calm | Missing | 24° | 75° | 24° | 75° | 100% | 1011 mb | 1,236 ft |
登录
| 您的浏览器不支持. 升级您的浏览器 |
